| time (UTC) | temp C | wind direction | speed KPH | gust KPH | rain 1hr cm | rain 24hr cm | rain mn cm | humidity % | barometer mb |
| 20260906133011 | 15 | 324 | 0.0 | 0.0 | 0.00 | 0.00 | 0.00 | 88 | 1025.7 |
| 20260906131515 | 15 | 324 | 0.0 | 0.0 | 0.00 | 0.00 | 0.00 | 90 | 1025.7 |
| 20260906130009 | 15 | 324 | 0.0 | 9.7 | 0.00 | 0.00 | 0.00 | 92 | 1025.7 |
| 20260906124505 | 15 | 331 | 0.0 | 0.0 | 0.00 | 0.00 | 0.00 | 93 | 1025.7 |
| 20260906123002 | 15 | 331 | 0.0 | 6.4 | 0.00 | 0.00 | 0.00 | 94 | 1025.7 |
| 20260906121502 | 15 | 335 | 0.0 | 0.0 | 0.00 | 0.00 | 0.00 | 95 | 1025.7 |
| 20260906120113 | 14 | 335 | 0.0 | 0.0 | 0.00 | 0.00 | 0.00 | 94 | 1025.7 |
| 20260906114558 | 13 | 335 | 0.0 | 0.0 | 0.00 | 0.00 | 0.00 | 94 | 1025.7 |
| 20260906113100 | 13 | 335 | 0.0 | 0.0 | 0.00 | 0.00 | 0.00 | 94 | 1025.7 |
| 20260906111607 | 13 | 335 | 0.0 | 0.0 | 0.00 | 0.00 | 0.00 | 94 | 1025.7 |
| 20260906110053 | 13 | 335 | 0.0 | 0.0 | 0.00 | 0.00 | 0.00 | 93 | 1025.7 |
| 20260906104550 | 13 | 335 | 0.0 | 0.0 | 0.00 | 0.00 | 0.00 | 93 | 1025.7 |
| 20260906103049 | 13 | 335 | 0.0 | 0.0 | 0.00 | 0.00 | 0.00 | 93 | 1025.7 |
| 20260906101649 | 13 | 335 | 0.0 | 0.0 | 0.00 | 0.00 | 0.00 | 93 | 1025.7 |
| 20260906100045 | 13 | 335 | 0.0 | 0.0 | 0.00 | 0.00 | 0.00 | 93 | 1025.7 |
| 20260906094544 | 14 | 335 | 0.0 | 0.0 | 0.00 | 0.00 | 0.00 | 93 | 1025.7 |
| 20260906093046 | 14 | 335 | 0.0 | 0.0 | 0.00 | 0.00 | 0.00 | 93 | 1025.7 |
| 20260906091541 | 14 | 335 | 0.0 | 0.0 | 0.00 | 0.00 | 0.00 | 93 | 1025.7 |
| 20260906090041 | 14 | 335 | 0.0 | 0.0 | 0.00 | 0.00 | 0.00 | 92 | 1025.7 |
| 20260906084548 | 15 | 335 | 0.0 | 0.0 | 0.00 | 0.00 | 0.00 | 92 | 1025.7 |
| 20260906083040 | 15 | 335 | 0.0 | 0.0 | 0.00 | 0.00 | 0.00 | 92 | 1025.7 |
| 20260906081538 | 15 | 335 | 0.0 | 0.0 | 0.00 | 0.00 | 0.00 | 92 | 1025.7 |
| 20260906080037 | 15 | 335 | 0.0 | 0.0 | 0.00 | 0.00 | 0.00 | 92 | 1025.7 |
| 20260906074536 | 15 | 335 | 0.0 | 0.0 | 0.00 | 0.00 | 0.00 | 92 | 1025.7 |
| 20260906073040 | 15 | 335 | 0.0 | 0.0 | 0.00 | 0.00 | 0.00 | 92 | 1025.7 |
| 20260906071537 | 15 | 335 | 0.0 | 0.0 | 0.00 | 0.00 | 0.00 | 92 | 1025.7 |
| 20260906070032 | 15 | 335 | 0.0 | 0.0 | 0.00 | 0.00 | 0.00 | 92 | 1025.7 |
| 20260906064529 | 16 | 335 | 0.0 | 0.0 | 0.00 | 0.00 | 0.00 | 93 | 1025.7 |
| 20260906063029 | 16 | 335 | 0.0 | 0.0 | 0.00 | 0.00 | 0.00 | 93 | 1025.7 |
| 20260906061528 | 16 | 335 | 0.0 | 0.0 | 0.00 | 0.00 | 0.00 | 93 | 1025.7 |
| 20260906060034 | 16 | 335 | 0.0 | 0.0 | 0.00 | 0.00 | 0.00 | 93 | 1025.7 |
| 20260906054527 | 16 | 335 | 0.0 | 0.0 | 0.00 | 0.00 | 0.00 | 92 | 1025.7 |
| 20260906053026 | 16 | 335 | 0.0 | 0.0 | 0.00 | 0.00 | 0.00 | 92 | 1025.7 |
| 20260906051525 | 16 | 335 | 0.0 | 0.0 | 0.00 | 0.00 | 0.00 | 93 | 1025.7 |
| 20260906050026 | 16 | 335 | 0.0 | 0.0 | 0.00 | 0.00 | 0.00 | 92 | 1025.7 |
| 20260906044523 | 16 | 335 | 0.0 | 0.0 | 0.00 | 0.00 | 0.00 | 92 | 1025.7 |
| 20260906043029 | 16 | 335 | 0.0 | 0.0 | 0.00 | 0.00 | 0.00 | 92 | 1025.7 |
| 20260906041522 | 16 | 335 | 0.0 | 0.0 | 0.00 | 0.00 | 0.00 | 92 | 1025.7 |
| 20260906040028 | 16 | 335 | 0.0 | 0.0 | 0.00 | 0.00 | 0.00 | 92 | 1025.7 |
| 20260906034532 | 16 | 335 | 0.0 | 0.0 | 0.00 | 0.00 | 0.00 | 92 | 1025.7 |
| 20260906033026 | 16 | 335 | 0.0 | 0.0 | 0.00 | 0.00 | 0.00 | 92 | 1025.7 |
| 20260906031520 | 16 | 335 | 0.0 | 0.0 | 0.00 | 0.00 | 0.00 | 92 | 1025.7 |
| 20260906030020 | 16 | 335 | 0.0 | 0.0 | 0.00 | 0.00 | 0.00 | 92 | 1025.7 |
| 20260906024518 | 16 | 335 | 0.0 | 0.0 | 0.00 | 0.00 | 0.00 | 92 | 1025.7 |
| 20260906023018 | 16 | 335 | 0.0 | 0.0 | 0.00 | 0.00 | 0.00 | 91 | 1025.7 |
| 20260906021520 | 16 | 335 | 0.0 | 0.0 | 0.00 | 0.00 | 0.00 | 91 | 1025.7 |
| 20260906020017 | 16 | 335 | 0.0 | 0.0 | 0.00 | 0.00 | 0.00 | 91 | 1025.7 |
| 20260906014526 | 17 | 335 | 0.0 | 0.0 | 0.00 | 0.00 | 0.00 | 91 | 1025.7 |
| 20260906013016 | 17 | 335 | 0.0 | 0.0 | 0.00 | 0.00 | 0.00 | 91 | 1025.7 |
| 20260906011531 | 17 | 335 | 0.0 | 0.0 | 0.00 | 0.00 | 0.00 | 90 | 1025.7 |
| 20260906010015 | 17 | 335 | 0.0 | 0.0 | 0.00 | 0.00 | 0.00 | 90 | 1025.7 |
| 20260906004524 | 17 | 335 | 0.0 | 0.0 | 0.00 | 0.00 | 0.00 | 90 | 1025.7 |
| 20260906003013 | 17 | 335 | 0.0 | 0.0 | 0.00 | 0.00 | 0.00 | 90 | 1025.7 |
| 20260906001517 | 17 | 335 | 0.0 | 0.0 | 0.00 | 0.00 | 0.00 | 89 | 1025.7 |
| 20260906000013 | 17 | 335 | 0.0 | 0.0 | 0.00 | 0.00 | 0.00 | 89 | 1025.7 |
| 20260905234512 | 17 | 335 | 0.0 | 0.0 | 0.00 | 0.00 | 0.00 | 89 | 1025.7 |
| 20260905233011 | 17 | 335 | 0.0 | 0.0 | 0.00 | 0.00 | 0.00 | 88 | 1025.7 |
| 20260905231511 | 17 | 335 | 0.0 | 0.0 | 0.00 | 0.00 | 0.00 | 87 | 1025.7 |
| 20260905230015 | 17 | 335 | 0.0 | 0.0 | 0.00 | 0.00 | 0.00 | 87 | 1025.7 |
| 20260905224522 | 18 | 335 | 0.0 | 0.0 | 0.00 | 0.00 | 0.00 | 86 | 1025.7 |
| 20260905223009 | 18 | 335 | 0.0 | 0.0 | 0.00 | 0.00 | 0.00 | 85 | 1025.7 |
| 20260905221508 | 18 | 335 | 0.0 | 0.0 | 0.00 | 0.00 | 0.00 | 86 | 1025.7 |
| 20260905220008 | 18 | 335 | 0.0 | 0.0 | 0.00 | 0.00 | 0.00 | 86 | 1025.7 |
| 20260905214507 | 18 | 335 | 0.0 | 0.0 | 0.00 | 0.00 | 0.00 | 88 | 1025.7 |
| 20260905213007 | 18 | 335 | 0.0 | 0.0 | 0.00 | 0.00 | 0.00 | 88 | 1025.7 |
| 20260905211506 | 18 | 335 | 0.0 | 3.2 | 0.00 | 0.00 | 0.00 | 88 | 1025.7 |
| 20260905210010 | 18 | 335 | 0.0 | 0.0 | 0.00 | 0.00 | 0.00 | 88 | 1025.7 |
| 20260905204505 | 18 | 337 | 0.0 | 0.0 | 0.00 | 0.00 | 0.00 | 88 | 1025.7 |
| 20260905203005 | 18 | 337 | 0.0 | 0.0 | 0.00 | 0.00 | 0.00 | 88 | 1025.7 |
| 20260905201504 | 18 | 344 | 0.0 | 11.3 | 0.00 | 0.00 | 0.00 | 86 | 1025.7 |
| 20260905200004 | 20 | 127 | 0.0 | 1.6 | 0.00 | 0.00 | 0.00 | 84 | 1025.7 |
| 20260905194503 | 20 | 283 | 0.0 | 6.4 | 0.00 | 0.00 | 0.00 | 84 | 1025.7 |
| 20260905193003 | 20 | 324 | 0.0 | 0.0 | 0.00 | 0.00 | 0.00 | 84 | 1025.7 |
| 20260905191501 | 20 | 324 | 0.0 | 0.0 | 0.00 | 0.00 | 0.00 | 84 | 1025.7 |
| 20260905190001 | 20 | 324 | 0.0 | 9.7 | 0.00 | 0.00 | 0.00 | 83 | 1025.7 |
| 20260905184604 | 20 | 321 | 0.0 | 8.0 | 0.00 | 0.00 | 0.00 | 82 | 1025.7 |
| 20260905183101 | 20 | 308 | 0.0 | 8.0 | 0.00 | 0.00 | 0.00 | 82 | 1025.7 |
| 20260905181603 | 20 | 325 | 0.0 | 9.7 | 0.00 | 0.00 | 0.00 | 83 | 1025.7 |
| 20260905174557 | 19 | 312 | 0.0 | 9.7 | 0.00 | 0.00 | 0.00 | 84 | 1025.7 |
| 20260905173056 | 20 | 304 | 0.0 | 9.7 | 0.00 | 0.00 | 0.00 | 84 | 1025.7 |
| 20260905171556 | 19 | 322 | 0.0 | 12.9 | 0.00 | 0.00 | 0.00 | 85 | 1025.7 |
| 20260905170059 | 20 | 281 | 0.0 | 0.0 | 0.00 | 0.00 | 0.00 | 84 | 1025.7 |
| 20260905164555 | 20 | 329 | 0.0 | 12.9 | 0.00 | 0.00 | 0.00 | 82 | 1025.7 |
| 20260905163053 | 21 | 316 | 0.0 | 11.3 | 0.00 | 0.00 | 0.00 | 80 | 1025.7 |
| 20260905161552 | 21 | 296 | 0.0 | 8.0 | 0.00 | 0.00 | 0.00 | 81 | 1025.7 |
| 20260905160054 | 22 | 310 | 0.0 | 6.4 | 0.00 | 0.00 | 0.00 | 81 | 1025.7 |
| 20260905154556 | 22 | 322 | 0.0 | 8.0 | 0.00 | 0.00 | 0.00 | 82 | 1025.7 |
| 20260905153048 | 21 | 290 | 0.0 | 9.7 | 0.00 | 0.00 | 0.00 | 83 | 1025.7 |
| 20260905151550 | 20 | 319 | 0.0 | 8.0 | 0.00 | 0.00 | 0.00 | 82 | 1025.7 |
| 20260905150055 | 21 | 311 | 0.0 | 6.4 | 0.00 | 0.00 | 0.00 | 81 | 1025.7 |
| 20260905144549 | 21 | 279 | 0.0 | 11.3 | 0.00 | 0.00 | 0.00 | 81 | 1025.7 |
| 20260905143049 | 21 | 322 | 0.0 | 8.0 | 0.00 | 0.00 | 0.00 | 84 | 1025.7 |
| 20260905141542 | 21 | 301 | 0.0 | 6.4 | 0.00 | 0.00 | 0.00 | 84 | 1025.7 |
| 20260905140040 | 20 | 350 | 0.0 | 8.0 | 0.00 | 0.00 | 0.00 | 86 | 1025.7 |
| 20260905134534 | 19 | 14 | 0.0 | 0.0 | 0.00 | 0.00 | 0.00 | 89 | 1025.7 |